{"data":{"norad_id":59759,"epoch":"2026-09-21T09:50:57.562944Z","epoch_age_seconds":92612,"freshness":"FRESH","line1":"1 59759U 24091G   26264.41038846 -.00000884  00000+0 -24390-5 0  9999","line2":"2 59759  53.1590 321.4139 0000908 115.7652 244.3460 15.69703178136254","mean_motion":15.69703178,"eccentricity":9.08e-5,"inclination_deg":53.159,"raan_deg":321.4139,"arg_perigee_deg":115.7652,"mean_anomaly_deg":244.346,"bstar":-2.439e-6,"rev_number":13625,"period_min":91.73708890841,"perigee_km":359.13447264202,"apogee_km":360.3580722443,"semimajor_km":6737.8832724432,"source":"CELESTRAK","updated_at":"2026-09-22T09:00:49.068019Z"}}